User: anonymous   Login
Location: Unspecified
(0.0000°N, 0.0000°E)
Time: 16:28:41
(UTC+00:00)
Language:

Nimbus 3 - Orbit

View from above orbital plane
View from above orbital plane
View from above satellite
View from above satellite

Ground track
Ground track

The orbit data is extracted from the following two-line orbital elements,

1  3890U 69037A   23273.19837646  .00000009  00000-0  93241-4 0  9998
2  3890  99.8185 169.7643 0038854 223.3803 259.6758 13.42585521668252
Epoch (UTC): 30 September 2023 04:45:39
Eccentricity: 0.0038854
inclination: 99.8185°
perigee height: 1070 km
apogee height: 1129 km
right ascension of ascending node: 169.7643°
argument of perigee: 223.3803°
revolutions per day: 13.42585521
mean anomaly at epoch: 259.6758°
orbit number at epoch: 66825

The dashed part of the orbit path shows where the satellite is in the earth's shadow,  

DLR